Location: Alsip
(41.6689°N, 87.7387°W)
Time: 14:15:49
(UTC+00:00)

SPOT 5 - Pass Details

Date: 14 July 2020
Orbit: 622 x 815 km, 98.3° (Epoch: 13 August)

Event Time Altitude Azimuth Distance (km) Brightness Sun altitude
Exits shadow 03:41:53 36° 176° (S) 1,119 3.4 -19.4°
Maximum altitude 03:43:51 79° 257° (WSW) 722 2.8 -19.6°
Drops below altitude 10° 03:48:30 10° 344° (NNW) 2,122 6.4 -20.1°
Sets 03:50:41 0° 346° (NNW) 3,014 7.4 -20.3°
